Theta_e
336 330 330 330 327 324 318 318 303 310 307 302 301 303 301 309 308 307 308 308 308 314 316 319 321 319 316 315 316 318 322 319 317 311 312 327 338 337 339 339 341 338 335 337 340 344 345 345 345 345 345 344 345 344 343 343 342 341 341 340 339 342 339 338 343 341 341 342 341 341 341 339 338 339 341 343 344 343 343 343 343 342 342 342 342 344 346 346 345 346 346 346 344 343 342 341 340
326 327 328 329 326 320 314 315 306 304 305 300 300 303 302 308 308 307 305 310 312 313 317 320 320 321 320 319 320 319 322 323 325 322 329 334 338 337 340 340 340 336 334 335 339 343 346 346 346 346 344 344 344 343 342 341 341 341 342 343 342 340 339 339 339 339 339 339 339 341 342 342 342 341 341 341 344 344 344 344 343 343 343 345 346 346 346 345 346 345 345 344 343 342 341 340 339
327 326 324 327 322 319 312 312 301 302 300 298 300 303 307 304 305 308 310 313 315 317 318 320 322 319 316 315 315 316 316 328 329 329 328 336 331 334 339 340 341 336 333 334 337 339 344 345 345 345 343 342 343 343 342 341 341 342 344 346 345 342 340 338 339 341 339 339 341 341 341 340 340 339 339 341 343 343 343 343 344 345 345 345 345 345 345 345 344 345 344 344 343 341 339 338 338
329 330 323 322 313 319 309 307 304 301 300 298 300 304 305 306 307 311 314 315 317 318 319 318 316 323 317 312 316 317 321 325 330 330 328 330 333 337 339 340 342 336 335 336 337 337 344 345 345 345 343 342 342 342 341 340 342 344 345 346 345 343 341 340 339 340 340 339 337 337 340 339 337 339 340 339 342 342 341 341 345 344 345 344 344 344 344 344 344 344 343 342 342 341 339 338 337
327 330 326 321 314 310 308 307 304 302 299 300 299 304 306 308 308 311 315 316 316 318 318 317 316 322 323 319 318 317 323 328 331 333 331 335 339 339 340 342 339 336 334 335 336 337 344 343 345 345 343 342 342 341 340 340 342 344 344 344 344 342 340 338 337 337 335 335 339 340 341 341 340 339 338 339 340 342 341 342 343 345 344 344 344 343 344 343 343 343 342 342 342 340 338 337 336
323 324 328 322 312 315 309 301 300 301 303 305 302 303 306 309 309 313 314 315 315 317 318 317 317 318 315 317 323 324 328 322 329 332 333 335 338 339 341 341 337 334 333 335 336 338 341 340 344 344 343 341 341 341 340 341 345 344 343 342 341 341 340 337 336 338 339 338 340 341 341 340 340 339 339 339 340 341 341 341 342 341 341 342 342 342 342 342 342 342 341 341 341 339 338 336 335
321 318 318 318 315 315 305 302 301 302 302 306 304 304 306 309 311 313 313 313 315 316 317 317 319 315 312 322 322 330 333 334 331 331 334 339 340 340 340 339 336 333 333 334 335 338 340 339 343 344 345 344 341 341 340 342 344 343 342 341 341 341 340 339 341 342 343 343 342 341 341 341 341 342 341 341 341 341 342 342 342 343 343 343 342 342 343 342 342 342 341 341 340 339 337 336 334
325 315 316 309 309 309 305 302 302 303 302 306 305 305 307 309 312 312 311 310 310 311 314 316 318 315 315 321 318 328 331 335 336 336 339 339 339 340 340 338 335 333 332 334 337 339 341 339 343 345 345 343 341 340 341 341 342 341 340 340 340 342 341 340 341 342 342 342 342 342 342 342 341 341 340 340 340 342 343 342 342 342 341 341 342 341 341 340 340 341 341 341 340 339 336 335 334
319 315 320 311 306 309 305 302 302 305 305 306 306 307 310 311 312 311 310 311 312 312 313 315 317 310 316 314 321 327 331 335 336 337 338 339 338 339 338 338 334 333 333 333 338 339 340 339 343 345 344 344 343 340 340 339 340 340 339 339 341 343 341 339 339 340 340 342 342 341 341 340 339 338 338 338 338 341 342 341 341 340 340 341 340 341 340 340 340 340 341 340 339 337 335 334 333
316 314 309 309 310 303 305 304 300 303 305 306 306 306 307 310 312 312 310 310 310 310 313 316 317 311 311 311 322 327 330 334 336 337 338 338 339 339 337 338 336 334 333 334 336 335 339 342 339 342 343 345 345 343 339 339 339 338 338 340 342 342 340 338 337 338 338 338 338 337 337 338 338 338 338 338 338 339 339 341 341 340 339 339 340 340 340 339 339 339 340 339 338 336 335 335 333
309 314 316 307 305 303 304 303 302 303 305 307 306 308 309 311 312 311 311 310 311 310 316 317 311 311 311 314 324 332 334 334 334 334 337 338 339 337 336 338 337 335 333 335 335 337 337 341 342 339 342 342 345 346 343 340 339 338 341 343 343 342 340 338 337 337 337 337 337 338 337 337 338 338 338 337 338 337 337 338 340 340 341 340 340 340 339 339 339 339 339 339 337 337 335 334 333
308 309 312 304 304 304 306 305 302 303 305 306 306 307 309 310 312 310 310 308 309 310 311 313 312 313 309 312 322 330 333 333 335 336 338 339 337 337 337 337 337 335 336 335 336 336 336 340 344 342 337 339 341 342 342 341 341 339 340 343 342 341 339 338 336 336 337 337 337 337 337 337 338 338 338 337 340 339 337 339 341 340 340 339 339 339 338 338 338 338 338 337 336 336 336 334 333
309 313 307 305 305 306 305 304 304 303 304 305 307 308 310 310 310 311 310 310 309 308 310 314 319 312 309 311 328 331 330 333 335 338 338 337 337 337 337 336 336 336 335 336 335 336 338 336 340 342 340 333 335 337 338 339 341 341 342 343 343 342 341 338 336 336 338 337 337 337 339 338 339 339 339 339 340 336 336 339 339 336 337 338 338 338 338 338 338 337 337 336 336 336 335 334 333
311 312 309 304 309 306 304 306 306 301 301 305 309 309 310 310 312 312 312 308 308 308 315 317 314 314 311 315 321 325 330 334 335 338 337 337 338 337 337 335 336 335 336 335 335 336 337 337 335 340 343 342 344 339 333 336 339 341 340 342 343 343 343 344 343 342 340 340 340 340 340 339 338 338 338 338 338 338 337 337 339 337 338 338 337 337 337 337 337 337 336 336 335 335 334 333 332
313 313 309 307 305 305 306 303 305 303 301 307 306 309 309 312 312 311 311 308 310 315 316 321 322 313 308 308 315 323 331 334 336 338 338 338 338 337 336 335 334 335 335 333 335 335 335 336 335 339 340 340 342 341 341 341 333 337 338 340 340 341 340 339 340 338 338 338 339 338 336 334 333 333 334 335 336 336 335 333 336 338 336 335 336 336 337 336 335 335 334 334 334 334 333 332 331
317 310 308 304 303 303 305 305 305 304 302 306 307 309 309 310 311 310 311 311 311 316 314 312 320 315 312 321 325 329 333 334 336 338 337 337 337 337 335 334 333 332 333 334 333 334 336 335 334 335 338 339 339 341 341 340 333 331 335 336 337 337 337 336 335 334 333 334 333 332 331 333 331 333 329 333 331 333 331 332 332 335 335 335 335 335 336 335 334 333 332 332 332 332 331 330 330
317 314 304 304 302 304 305 305 306 303 303 305 306 308 307 307 311 312 311 313 310 311 312 318 315 320 319 322 331 334 335 335 335 336 336 334 334 333 333 332 331 331 332 333 333 332 335 334 333 334 337 338 338 340 341 340 339 329 331 330 331 333 334 333 331 326 325 325 328 326 329 333 334 334 336 334 329 334 324 326 331 336 335 334 334 334 335 335 333 332 331 331 330 329 327 326 327
313 306 305 303 305 304 309 307 308 306 304 303 305 309 309 307 308 310 311 310 311 312 311 317 319 318 324 322 329 335 335 334 335 333 332 331 332 330 330 330 329 328 329 332 333 333 334 334 334 333 335 336 338 339 341 341 338 334 337 338 339 334 330 329 335 338 337 337 327 333 336 334 333 334 333 335 334 333 332 323 329 333 335 335 335 333 334 334 333 332 331 331 329 328 324 330 327
308 307 307 304 306 307 309 308 307 306 303 305 305 307 309 309 310 310 307 308 309 309 310 314 313 316 322 323 327 333 333 332 332 331 331 330 329 328 329 329 329 329 328 329 330 331 334 334 333 333 333 335 337 337 339 339 338 337 337 334 335 331 336 336 336 336 337 336 336 335 333 334 334 334 334 336 335 324 330 324 328 330 332 332 334 334 333 333 331 331 329 329 329 326 329 334 331
311 308 305 307 311 308 308 307 306 306 306 304 305 304 305 309 309 311 307 308 309 307 308 310 311 313 317 322 326 332 332 331 332 331 330 330 330 329 329 328 327 329 329 329 329 331 332 333 333 333 333 334 335 336 337 336 336 336 333 335 334 333 334 336 335 336 335 336 336 335 333 335 335 335 330 331 333 334 329 320 319 322 324 325 327 330 328 330 329 328 327 325 326 330 332 330 330
310 307 306 309 312 308 307 307 306 305 306 305 304 304 303 306 309 309 308 306 307 308 311 311 311 312 317 322 324 331 330 330 330 331 330 330 330 331 330 330 329 330 331 331 330 330 331 332 333 334 334 333 334 333 335 334 335 333 333 334 334 331 334 333 334 335 334 335 334 334 334 335 335 335 332 331 333 332 331 332 332 332 332 333 323 333 332 333 330 333 330 327 332 331 330 330 330
308 307 307 307 309 309 306 307 305 304 304 305 304 303 304 307 306 307 308 305 306 308 312 312 312 313 318 322 323 329 330 330 329 329 330 330 330 329 330 331 332 332 333 331 330 330 330 331 333 334 334 333 333 333 331 332 334 331 332 333 334 333 335 333 333 333 333 334 334 334 334 334 334 334 334 333 333 333 333 332 332 332 334 333 329 333 331 330 331 330 330 330 328 329 328 329 329
304 307 306 307 308 308 304 305 303 303 304 304 304 305 305 304 305 307 307 306 308 310 310 312 313 313 324 325 325 325 329 329 329 329 330 330 330 331 331 331 331 330 332 332 332 330 330 330 333 334 333 333 333 333 333 333 332 332 333 333 333 332 333 333 332 332 333 334 334 335 333 333 334 333 333 333 332 333 333 333 332 332 333 332 331 332 331 329 329 328 328 327 327 329 330 330 330
310 308 307 306 307 306 304 303 302 303 303 303 305 305 303 304 302 307 305 308 310 311 313 312 313 317 324 324 325 325 327 329 330 331 331 331 331 331 332 332 332 333 332 332 333 332 330 329 332 333 333 333 333 333 333 332 332 333 334 332 332 331 332 332 332 334 335 334 335 335 333 334 333 333 333 332 332 333 333 333 333 332 332 332 332 332 330 327 327 327 327 329 329 330 330 330 330
307 308 306 304 305 305 305 304 303 303 303 304 303 302 303 305 304 303 304 307 309 312 312 311 311 320 322 323 324 324 327 329 329 331 333 333 334 334 333 332 332 332 331 332 333 333 333 331 331 331 331 332 332 333 332 332 332 333 333 333 331 330 331 333 334 334 334 335 335 335 334 333 333 333 332 332 332 332 334 333 332 331 332 332 332 330 331 329 329 329 329 330 330 330 330 330 330
310 312 307 304 305 305 305 304 304 304 304 303 302 302 305 304 304 302 305 308 310 313 312 313 314 318 318 320 323 324 326 327 330 331 332 334 334 332 332 331 331 330 332 333 333 334 334 332 330 330 330 331 332 332 332 332 333 332 333 333 332 331 332 333 334 333 334 335 334 335 335 334 334 332 333 333 332 333 333 332 332 332 331 331 331 331 329 330 330 330 330 330 330 330 330 330 329
313 311 306 305 306 305 306 304 304 305 306 304 301 303 304 303 302 302 308 309 310 311 310 313 312 314 317 319 322 323 325 327 329 331 333 333 333 332 331 332 331 331 333 333 333 334 336 333 331 330 331 332 332 331 332 333 334 333 333 334 334 333 333 333 334 334 333 332 332 335 335 334 334 334 333 333 333 332 332 331 330 332 331 331 331 332 332 331 331 330 330 329 329 330 329 330 329
312 308 306 305 306 305 306 305 305 305 305 305 303 302 304 303 302 302 306 307 307 308 310 313 312 312 314 318 321 324 325 327 330 331 330 330 331 331 330 330 331 332 332 333 334 334 335 335 333 332 331 332 331 331 332 333 333 333 333 333 333 334 333 333 333 332 330 332 333 334 334 334 333 333 334 334 333 331 331 330 331 331 332 332 331 331 331 331 331 331 332 331 330 329 328 328 329
311 309 304 305 305 304 306 304 305 306 303 304 305 303 302 301 299 304 307 306 308 308 310 312 311 312 314 316 320 323 324 325 329 330 330 332 332 331 330 332 332 332 334 335 334 334 334 335 334 333 332 332 331 330 332 332 333 333 333 333 333 334 333 333 332 332 332 332 333 335 334 333 331 331 332 333 332 331 330 330 331 332 332 332 332 332 332 332 331 331 330 331 329 329 328 327 329
311 310 309 308 306 305 308 308 307 306 306 305 304 296 302 304 303 306 308 307 306 307 307 310 311 312 314 317 319 321 323 325 327 329 331 331 331 331 331 332 333 333 333 335 335 334 334 336 336 335 334 333 332 331 331 332 332 333 333 333 333 334 333 332 332 334 333 333 333 334 334 333 331 329 330 331 332 329 330 331 332 332 332 332 332 332 331 331 329 329 329 329 326 327 326 326 325
306 309 308 305 303 303 312 310 309 303 305 305 306 297 301 305 304 307 307 307 305 305 306 307 310 312 314 318 319 320 322 325 326 329 330 331 332 332 331 333 333 334 334 334 334 335 334 334 335 335 335 335 333 332 331 332 332 333 333 333 333 334 333 332 332 333 334 333 333 333 333 333 333 331 329 330 330 328 328 331 332 332 333 333 332 331 331 330 330 329 328 327 327 326 327 326 325
310 302 300 306 303 307 307 312 310 303 302 307 305 297 299 304 308 306 308 306 306 305 306 307 308 311 313 314 316 318 319 324 325 327 329 330 332 332 332 332 334 334 333 334 334 334 333 334 335 335 335 335 335 333 333 333 333 333 333 329 333 334 332 332 332 333 333 333 333 333 334 334 334 332 331 331 329 328 328 330 331 332 333 333 332 331 330 329 328 329 328 328 326 326 325 325 326
307 303 303 303 305 306 304 307 310 310 307 306 305 300 304 303 308 309 306 306 306 306 306 307 307 309 312 313 315 316 318 321 325 326 327 329 331 332 333 333 333 334 334 334 333 334 334 333 333 334 334 335 334 334 335 334 334 333 333 333 333 334 333 332 333 333 333 333 333 332 334 334 334 333 332 332 329 329 329 330 331 333 333 332 331 330 329 329 328 328 328 329 329 326 325 326 326
301 303 302 306 304 304 303 304 307 309 306 301 304 303 304 307 301 303 303 306 307 305 306 306 307 308 309 312 313 314 316 318 322 325 326 328 331 332 333 330 333 333 334 334 334 334 333 334 333 334 334 334 335 335 334 334 335 335 334 334 332 333 334 333 333 334 334 333 333 332 334 334 333 333 333 333 330 330 331 332 332 333 333 332 331 330 329 329 329 328 326 328 328 326 325 325 324
299 300 300 303 304 304 304 302 305 305 305 305 304 302 304 307 309 303 302 304 305 305 305 306 306 306 307 308 311 313 314 316 319 324 326 327 330 332 332 332 333 334 333 333 334 334 334 333 333 333 333 333 334 334 335 335 335 335 335 335 334 334 334 334 334 334 334 334 334 334 334 334 333 333 334 333 331 330 330 332 332 333 332 332 330 329 329 329 328 328 327 326 327 328 326 326 325
304 303 303 304 301 301 301 304 304 306 302 302 304 301 301 304 306 310 310 304 304 305 307 307 306 306 306 307 308 309 311 313 316 320 324 327 329 331 331 332 333 333 333 333 333 334 333 333 333 333 333 333 334 334 334 334 334 332 332 333 332 332 333 332 334 334 335 334 334 333 334 334 334 333 334 334 333 331 331 331 332 333 333 332 330 329 328 328 328 328 327 327 326 326 327 326 326
308 307 305 304 304 304 306 306 301 305 302 301 302 304 304 305 305 307 310 310 305 305 306 307 307 306 306 306 306 308 309 311 318 320 323 326 328 330 331 332 332 332 333 332 332 333 333 332 332 331 332 333 332 332 332 332 331 332 332 331 330 332 333 333 333 334 334 335 334 334 333 334 336 335 335 335 334 330 332 333 333 333 334 332 330 329 330 329 329 329 328 328 326 324 325 327 326
306 305 304 303 304 302 307 304 300 301 300 301 303 302 302 304 306 307 309 307 306 305 305 306 308 308 308 308 307 308 309 313 318 319 321 325 326 329 330 330 329 330 331 332 331 332 332 332 331 331 332 332 331 330 331 331 332 332 331 331 331 332 332 332 332 333 334 335 335 334 333 334 335 337 335 335 335 334 333 333 333 333 332 332 331 331 331 327 330 329 329 327 327 325 323 326 326
305 304 303 302 303 306 301 302 299 299 299 299 303 300 300 301 303 305 305 305 306 308 306 306 308 310 311 309 308 309 310 311 313 313 315 319 324 327 328 329 330 330 331 330 331 331 331 331 331 332 332 332 331 330 330 330 332 333 333 332 332 332 334 335 334 334 334 334 334 335 334 333 334 336 337 335 335 335 335 334 334 333 333 332 330 330 330 329 329 329 329 326 325 326 324 327 325
304 303 302 300 305 302 298 300 300 298 300 299 300 297 298 301 304 305 307 306 305 307 307 306 307 309 310 310 308 308 308 310 310 310 310 312 318 322 325 327 328 329 329 329 330 330 331 331 331 332 332 332 332 331 329 332 332 334 334 334 335 334 333 334 335 335 334 333 332 334 334 334 334 335 336 336 335 335 335 335 334 334 333 333 332 329 329 329 329 328 328 327 326 322 322 323 325
304 304 303 302 302 302 302 299 300 298 299 298 298 298 299 302 302 304 308 309 307 306 306 306 306 307 309 311 311 310 308 309 311 311 311 311 314 318 321 325 327 328 328 329 329 329 330 330 332 332 332 332 332 331 331 332 332 332 333 333 334 334 334 333 333 332 333 332 332 333 333 334 334 335 335 336 334 334 335 335 334 334 333 334 332 330 329 329 330 329 329 328 326 323 322 323 323
302 304 304 303 304 302 299 298 297 296 297 298 298 293 295 303 304 304 307 309 307 306 305 305 304 305 307 305 306 309 312 312 310 310 311 312 312 315 319 322 325 327 327 329 330 330 330 330 332 333 333 332 332 333 332 332 330 330 329 329 327 328 328 329 328 329 330 331 331 333 334 334 334 334 335 335 335 332 334 335 335 334 333 333 332 331 331 331 330 329 329 328 327 327 324 324 321
300 300 305 304 303 303 300 298 298 294 292 297 300 292 291 302 301 303 305 306 307 308 305 305 305 305 305 305 306 306 306 307 310 310 311 311 312 312 315 318 322 324 326 329 330 330 331 331 332 332 332 332 334 334 334 331 331 330 330 328 329 328 327 329 331 332 332 332 333 333 333 334 334 333 334 335 335 334 333 334 334 334 334 333 332 331 330 330 329 329 329 328 327 327 327 323 322
299 303 304 303 302 300 299 299 299 298 301 298 295 296 290 291 298 304 306 303 302 303 304 304 305 306 305 306 306 307 307 308 310 310 310 310 311 312 311 314 318 321 324 327 329 330 330 330 331 331 332 331 333 334 334 333 331 331 330 330 329 329 328 329 330 332 333 332 331 332 333 333 334 334 334 334 334 333 332 333 334 334 334 333 331 331 331 331 330 331 330 330 329 327 326 324 323
300 300 304 302 301 300 300 299 298 298 294 291 294 296 290 290 296 302 302 300 301 301 303 304 304 305 305 306 306 307 308 309 310 312 311 310 310 310 311 312 315 317 321 323 326 328 330 330 331 331 331 331 332 333 333 333 331 331 330 330 329 329 330 330 331 331 330 332 331 332 332 332 333 333 333 333 333 333 331 331 332 333 333 333 331 332 332 332 330 329 329 328 327 327 327 326 324
298 302 303 302 302 300 299 297 297 296 291 287 294 295 289 291 298 301 300 298 299 301 304 305 306 306 306 306 307 307 308 310 311 310 311 312 312 312 312 311 311 314 317 321 323 325 327 329 329 329 330 331 332 332 332 333 333 330 330 330 329 329 329 329 330 329 329 330 329 330 331 331 331 331 332 332 332 332 333 331 331 332 332 333 329 332 332 331 330 329 329 329 328 327 327 326 324
302 301 299 298 298 298 297 297 294 291 286 288 295 296 293 287 297 299 298 297 300 302 304 305 307 308 308 308 308 309 307 309 311 310 308 308 309 310 311 309 309 311 316 317 319 321 323 324 326 327 329 330 331 331 332 332 332 331 329 329 329 329 329 328 327 327 328 328 327 327 329 330 331 330 331 331 331 332 332 331 331 332 332 332 330 331 331 331 330 329 328 329 327 326 325 324 323
301 298 296 296 293 296 294 291 293 286 285 292 295 296 295 286 293 300 304 303 302 303 303 304 305 306 307 308 308 309 309 308 308 307 307 308 307 307 306 306 307 307 309 309 313 315 317 319 321 323 325 327 329 330 331 331 331 331 330 329 329 329 329 328 327 326 328 328 328 327 328 329 329 329 329 329 329 331 331 331 331 331 331 332 331 331 331 331 330 329 328 327 326 326 326 324 324
300 298 296 290 287 288 285 289 284 285 286 288 291 294 291 289 296 300 302 301 302 302 303 304 304 304 306 308 308 307 307 306 306 307 309 309 308 308 306 306 306 306 307 307 308 311 314 316 318 319 320 323 325 328 329 329 330 330 330 329 328 328 329 329 328 327 328 328 328 327 326 326 327 327 327 328 328 330 330 330 330 329 329 330 329 330 331 331 329 328 327 326 326 324 324 323 323
297 295 293 289 286 284 282 286 288 288 289 290 290 293 288 294 297 301 300 303 304 303 304 304 304 304 305 306 306 305 307 308 309 310 311 311 311 311 310 310 309 309 308 308 308 308 311 313 316 317 318 320 323 324 326 327 328 329 330 329 328 327 327 328 328 327 327 327 328 327 326 326 325 326 327 327 328 329 329 330 330 330 331 330 329 329 329 328 328 326 326 325 324 324 324 323 323
296 300 297 292 291 286 282 286 283 285 288 287 292 288 287 289 295 297 300 302 304 305 304 306 306 306 306 306 306 306 307 307 310 310 311 310 311 310 311 310 310 310 310 309 309 308 309 309 311 313 315 317 320 322 324 325 326 327 326 327 327 327 326 326 326 327 327 327 326 326 325 326 326 327 327 328 329 329 329 329 329 330 330 330 329 328 328 327 326 325 324 324 323 324 323 322 322
298 299 301 294 291 296 288 288 288 287 286 285 285 288 294 296 300 301 301 301 301 302 303 303 303 303 303 304 305 305 305 306 309 310 310 309 309 309 309 309 310 310 309 309 308 308 308 309 310 312 313 316 318 320 323 324 324 325 325 325 326 326 325 326 326 326 327 327 327 326 326 326 327 327 328 328 328 328 328 328 328 327 328 328 327 327 326 326 325 325 323 322 321 321 320 320 320
295 296 290 294 298 295 288 285 288 286 287 286 290 288 293 298 299 301 301 300 300 301 301 302 302 302 303 304 305 305 306 308 310 311 310 310 309 309 309 309 309 309 309 309 309 309 308 309 310 310 312 314 316 318 320 322 323 323 323 324 325 325 325 325 325 326 327 328 328 327 326 326 327 327 328 328 328 328 328 327 326 326 326 326 325 324 323 323 323 323 322 321 319 318 318 318 316
297 290 295 300 300 297 291 286 285 285 284 286 289 287 290 291 288 301 299 297 299 300 300 301 301 302 302 304 306 307 308 310 311 310 309 308 308 308 309 309 310 310 310 310 310 310 309 309 310 310 311 313 315 317 319 320 321 322 322 323 324 324 324 325 325 325 327 327 327 328 327 326 326 327 327 328 327 326 326 319 325 324 324 324 323 323 322 322 320 319 319 319 318 316 315 315 314
297 294 303 293 287 286 291 288 282 281 282 285 288 288 289 292 293 295 296 297 298 300 302 302 301 302 303 304 305 307 309 311 309 307 307 307 306 306 307 308 309 309 310 311 310 309 308 308 310 311 312 313 315 318 319 320 321 322 322 322 322 323 324 324 325 326 326 326 327 327 326 326 326 327 326 326 325 324 323 321 322 321 321 321 321 322 322 322 321 318 317 316 314 313 312 311 310
296 299 297 301 295 291 287 288 288 288 284 284 285 286 286 294 295 298 298 298 299 300 301 301 303 303 302 303 305 307 309 310 310 308 307 307 307 308 308 309 310 309 308 308 308 308 308 308 307 308 310 312 314 316 317 318 319 320 320 321 322 322 323 324 325 325 325 325 326 326 326 325 325 325 325 324 322 320 319 317 317 318 317 318 318 318 318 317 317 317 316 313 311 311 309 307 304
290 292 292 294 293 296 294 294 289 287 286 286 286 284 289 297 299 299 299 301 301 301 301 302 303 304 305 305 306 307 309 310 308 307 305 306 306 307 308 309 309 306 305 306 307 308 309 308 308 308 307 308 308 310 313 315 317 317 317 318 318 320 321 322 323 324 324 325 325 324 324 324 323 321 321 320 318 318 317 316 315 314 315 315 316 315 315 315 314 311 311 308 307 309 307 302 301
292 292 291 293 290 287 285 284 294 287 286 285 285 283 290 299 300 300 300 302 302 302 302 303 305 304 303 304 305 307 307 306 306 306 305 305 305 307 308 308 308 306 305 304 306 307 307 308 308 308 308 309 308 308 308 310 312 314 315 315 316 317 319 321 321 322 322 322 322 322 321 319 319 318 317 317 316 315 314 314 313 313 312 313 313 313 312 313 312 309 307 306 305 305 302 298 298
Wind_Speed
7 4 3 5 5 5 6 4 5 5 6 0 4 2 6 3 2 5 5 5 5 5 4 1 4 5 2 6 9 7 9 9 9 3 3 5 6 9 8 10 12 10 9 9 9 9 10 10 10 11 11 11 12 11 11 11 11 10 11 12 12 14 12 13 14 12 13 13 12 12 12 11 11 12 12 13 13 13 13 13 14 13 13 14 15 16 17 17 18 19 19 18 18 18 17 17 17
4 5 4 4 4 4 2 2 5 3 3 4 6 2 6 6 5 4 6 2 7 7 4 3 4 2 3 7 5 1 10 10 10 8 8 8 7 8 9 11 11 10 9 9 10 10 9 10 7 10 11 11 11 11 10 11 11 11 10 11 12 11 11 12 11 12 12 11 11 12 12 12 12 11 10 13 14 15 14 13 13 13 14 15 16 16 16 18 19 19 19 18 18 17 17 16 16
4 5 4 4 5 5 5 4 6 1 3 3 6 6 4 5 3 3 5 7 7 7 4 4 3 3 2 4 5 4 6 5 11 11 8 11 11 8 10 11 10 9 10 8 9 9 8 9 6 9 11 11 11 10 10 9 10 10 11 11 12 11 12 10 12 13 11 12 12 11 11 11 12 11 11 13 13 14 13 13 14 13 13 15 16 16 16 18 18 18 17 18 18 17 16 16 15
4 4 5 4 5 4 5 5 6 4 3 2 5 5 4 3 4 8 8 8 6 6 5 5 5 2 4 1 6 1 7 6 9 10 9 10 7 11 11 11 11 9 8 6 7 9 9 11 8 10 11 11 11 10 9 8 11 11 12 12 12 10 12 12 12 11 12 12 11 11 12 12 11 11 10 11 14 13 13 12 15 14 14 14 16 16 17 18 17 17 17 17 17 16 16 16 15
5 4 3 5 5 2 4 3 5 3 3 4 5 5 3 2 7 7 7 7 5 4 6 4 4 3 2 5 4 3 6 9 8 7 8 6 14 11 12 11 9 9 8 8 8 8 11 12 6 10 11 11 11 10 9 8 12 12 12 12 11 10 11 10 10 11 10 9 13 12 13 13 11 12 12 11 12 12 12 13 14 15 14 14 15 16 17 17 16 16 16 16 16 16 15 15 15
5 4 3 4 4 3 4 4 5 1 6 5 3 5 4 3 6 7 8 6 5 2 1 6 3 4 4 1 4 3 3 2 6 7 8 8 13 13 12 10 10 9 9 8 7 7 9 11 9 9 12 11 10 9 7 9 12 11 10 10 11 10 10 10 10 10 11 10 11 11 12 11 11 12 12 11 12 12 12 13 13 13 13 14 15 15 15 16 15 14 15 15 15 15 14 14 14
2 4 4 4 2 3 5 4 0 1 5 4 5 3 4 5 7 8 8 7 3 2 3 3 3 1 5 5 4 6 6 6 5 6 4 11 13 13 11 9 9 10 9 8 7 8 10 7 8 9 9 9 9 8 7 10 11 10 9 9 9 10 10 10 11 10 11 10 10 11 11 11 11 11 11 10 11 12 11 13 13 13 14 14 15 15 15 15 15 15 14 15 14 14 14 13 13
3 4 3 5 3 3 5 1 1 1 4 4 3 4 4 6 6 7 8 7 7 5 7 1 2 6 5 2 1 5 5 6 7 10 14 11 13 12 10 9 9 10 9 8 7 9 9 6 6 6 8 10 8 9 8 9 11 10 9 9 9 10 9 9 11 11 11 11 11 12 11 11 11 10 10 10 10 11 12 13 12 12 13 14 14 14 14 14 14 14 14 14 14 13 13 13 13
2 5 0 5 5 3 4 3 3 3 5 2 4 3 3 3 6 6 7 3 8 1 8 7 4 5 6 5 4 7 6 5 7 11 11 13 12 11 8 9 9 9 9 8 8 9 9 7 7 7 6 6 8 8 8 7 7 8 7 9 11 11 9 9 11 11 11 11 11 11 11 11 11 11 11 10 10 12 11 12 12 12 12 12 13 13 13 13 13 13 13 13 13 12 12 12 12
2 3 3 5 4 5 4 3 5 4 4 4 2 4 7 5 6 6 7 5 4 5 4 3 3 6 2 2 7 6 6 7 9 10 11 12 12 10 9 8 9 10 9 8 9 9 8 8 7 7 6 5 4 6 8 8 8 7 6 7 13 11 10 9 8 9 9 10 10 10 10 9 9 9 9 9 8 9 11 12 12 12 12 12 12 12 12 12 12 12 12 12 11 11 11 11 11
3 3 2 5 6 5 4 4 2 6 5 3 3 4 4 5 6 5 6 4 5 3 6 4 5 7 5 3 5 5 9 7 11 12 11 12 11 10 9 8 8 8 9 9 9 9 9 9 8 7 6 4 5 4 5 8 8 8 8 10 12 12 10 9 8 9 9 9 9 9 9 9 10 10 9 9 9 8 9 11 12 12 12 12 12 12 12 12 11 11 11 11 10 10 10 10 10
4 5 4 6 6 6 2 1 3 5 4 3 5 4 3 7 7 6 6 6 5 4 5 9 1 1 4 1 5 7 9 9 11 11 12 11 9 9 8 7 7 7 9 8 9 9 9 9 9 7 7 6 6 5 5 8 7 8 7 9 10 10 11 10 8 9 10 9 9 10 10 10 10 9 8 7 6 6 8 11 12 11 11 11 11 11 11 11 11 11 11 10 10 10 10 10 9
5 1 5 6 6 5 5 4 3 2 4 4 6 4 3 8 8 7 5 3 5 5 5 8 3 4 2 3 7 9 10 10 11 12 12 10 8 7 7 8 7 8 8 8 8 9 9 9 9 9 8 8 6 7 7 7 8 7 7 9 9 7 8 10 8 9 11 9 9 10 11 10 10 10 10 10 8 7 7 6 7 10 11 11 11 10 11 10 11 11 10 10 10 9 10 9 9
4 2 3 7 1 5 3 3 1 4 4 7 6 3 6 6 8 2 4 5 5 3 6 6 3 2 0 4 7 7 8 11 12 11 9 10 8 7 5 7 7 7 8 8 8 9 8 8 8 9 9 9 9 7 7 8 8 8 9 9 10 10 10 8 6 6 9 9 9 9 10 10 10 10 10 9 8 7 6 5 6 10 11 10 10 10 10 10 10 10 10 10 10 10 10 9 9
3 1 3 5 4 3 3 5 1 6 5 4 3 4 6 1 1 2 4 6 5 7 4 2 2 3 4 5 7 7 12 14 13 12 10 9 9 8 6 5 6 7 7 7 8 9 8 8 8 8 8 8 10 9 8 7 9 9 10 10 10 9 8 8 8 10 10 10 10 10 9 9 9 9 8 8 8 7 6 7 6 7 9 9 9 9 9 10 10 9 9 9 9 9 9 9 8
3 2 3 5 7 5 5 7 1 6 4 3 4 2 6 4 2 4 1 6 5 3 3 3 2 2 5 6 8 12 16 16 14 12 11 9 9 8 6 5 7 7 6 6 7 7 8 7 7 7 8 8 8 9 9 9 8 10 10 9 9 9 9 9 9 9 10 10 10 10 9 8 7 7 8 8 8 9 9 8 8 8 8 8 8 8 9 9 9 9 8 8 8 8 8 7 7
1 3 4 5 8 7 4 6 4 3 6 6 4 5 7 5 4 2 3 3 4 6 5 2 3 1 6 6 7 13 15 14 14 14 11 10 9 7 6 6 6 6 4 6 6 7 8 8 8 7 8 9 8 8 8 9 8 10 8 8 9 9 10 9 10 9 8 8 9 9 9 7 7 6 6 6 6 6 6 8 8 7 6 6 7 7 8 9 8 7 7 6 6 5 6 7 5
2 6 6 8 7 7 6 6 2 4 2 5 4 5 5 6 5 4 3 5 7 3 6 5 2 2 6 6 3 11 13 14 15 15 13 11 9 8 8 8 7 7 6 5 6 7 8 8 8 7 7 9 8 7 6 7 7 8 9 7 7 7 7 9 8 8 8 7 7 8 7 6 6 6 6 6 6 7 6 6 7 7 7 6 6 6 8 8 7 6 5 4 3 2 4 4 5
6 6 7 8 7 2 4 3 3 2 5 5 3 2 5 1 6 6 6 7 9 7 7 6 7 8 7 6 7 10 13 13 14 14 15 14 11 11 9 8 8 8 7 6 6 8 7 7 9 8 8 9 8 8 6 7 9 7 8 7 6 8 8 8 7 8 8 8 7 7 6 5 6 6 4 4 5 8 8 7 7 7 7 7 7 8 6 6 5 5 3 2 3 5 4 4 3
8 6 8 8 4 5 2 2 4 4 4 4 3 2 3 1 3 6 8 6 8 9 6 8 9 10 11 10 10 11 13 13 13 14 15 14 13 12 11 10 9 9 8 7 7 6 8 7 9 8 9 9 8 7 7 6 7 7 7 6 6 7 8 7 8 8 8 8 7 7 6 6 5 5 7 8 7 6 4 5 6 7 7 6 7 5 5 4 4 3 2 3 5 5 3 1 1
4 5 7 6 7 6 5 3 4 4 1 4 2 3 4 2 4 5 4 8 8 8 8 7 9 10 13 13 12 12 14 14 14 14 14 14 13 10 10 10 9 9 7 7 6 8 9 8 9 9 9 9 9 8 7 7 7 7 6 6 5 6 7 8 8 8 8 8 8 7 6 6 5 6 6 5 6 6 6 5 5 5 5 5 4 4 4 4 4 4 4 4 4 1 0 0 1
1 9 3 4 3 6 6 5 5 3 3 2 3 4 1 3 3 7 8 8 2 1 5 8 5 3 13 14 13 13 14 15 15 15 15 15 15 13 11 10 10 8 8 8 8 8 9 9 9 8 9 10 10 8 8 8 8 7 6 6 5 5 7 8 8 8 8 8 8 7 6 6 6 5 6 6 5 5 6 6 6 5 5 5 5 4 3 3 3 3 3 3 1 1 1 0 1
8 6 5 5 2 2 5 5 4 1 2 3 4 1 1 5 4 7 9 10 2 3 7 7 3 0 11 13 14 13 14 15 16 17 16 16 15 14 12 10 10 10 8 9 9 8 10 10 9 9 9 9 11 9 8 7 8 7 6 6 6 6 6 7 7 7 8 9 8 7 6 7 6 5 5 5 4 4 5 4 4 4 4 4 5 3 3 3 3 3 2 2 1 0 1 0 1
10 8 8 7 3 3 4 5 3 3 2 2 3 2 5 3 9 1 8 9 7 5 5 4 3 3 10 13 14 16 16 17 17 17 17 16 15 15 12 11 9 8 8 9 9 8 9 12 11 10 9 9 9 9 8 7 7 7 6 7 6 6 6 6 7 7 7 8 9 8 8 7 6 6 5 5 5 4 4 4 4 3 3 3 3 2 3 3 3 2 2 1 2 3 2 2 2
12 11 7 5 4 5 5 4 4 3 3 1 1 5 6 6 4 1 8 9 8 4 4 3 3 6 9 11 13 13 14 14 14 14 13 12 14 14 13 10 11 11 11 10 9 9 10 11 12 12 10 11 9 9 8 7 7 7 6 6 7 6 6 6 6 7 7 7 8 8 8 6 6 6 6 5 5 5 4 4 3 4 3 3 3 3 3 3 3 2 3 4 3 2 2 2 1
12 12 7 8 8 7 5 4 3 2 2 2 4 7 6 1 3 9 12 11 3 5 4 4 4 7 9 11 12 13 13 15 14 14 15 13 12 15 14 13 11 12 12 11 10 9 9 11 12 13 12 11 9 9 8 7 7 7 7 7 6 7 6 6 6 6 6 7 7 8 7 6 5 6 6 6 6 5 4 4 4 3 4 3 3 3 3 3 4 3 2 2 2 3 3 2 2
10 7 7 8 8 7 5 6 6 2 1 2 5 7 4 4 3 6 6 3 6 4 6 6 7 8 8 9 10 11 13 14 15 13 12 12 12 14 14 14 13 13 12 13 12 10 9 11 11 12 11 10 9 9 8 8 7 7 7 6 6 7 7 6 6 6 6 6 6 7 7 7 5 5 5 6 6 5 5 5 5 4 3 3 3 3 3 3 3 3 2 3 3 3 3 3 3
5 7 4 6 5 6 6 6 6 3 5 4 3 7 4 4 5 10 4 4 4 6 7 7 8 9 8 9 9 9 10 11 11 12 15 16 13 13 14 14 15 13 13 13 11 11 11 12 11 12 12 11 10 10 9 8 8 7 7 6 7 6 7 6 6 6 6 6 6 6 7 7 7 5 5 6 6 6 5 5 5 4 4 4 3 3 3 3 3 2 1 2 3 4 4 4 3
4 7 7 10 8 9 10 11 10 7 4 4 1 8 12 10 10 11 9 6 6 6 7 7 8 9 9 9 8 8 9 10 11 12 15 14 12 12 15 15 14 14 11 13 13 12 13 12 11 11 12 12 12 11 9 8 7 7 7 7 6 6 7 7 6 6 6 6 6 6 7 8 7 6 6 6 6 5 5 5 5 5 4 4 4 4 4 3 3 3 4 3 4 4 3 4 4
5 6 7 8 9 12 14 11 10 8 5 6 3 9 11 14 16 12 10 7 6 6 7 7 7 8 8 8 8 8 9 10 12 13 12 12 12 13 15 15 15 13 11 10 13 14 12 10 9 9 10 11 12 11 9 9 8 7 7 7 7 7 6 6 6 6 6 6 6 7 7 7 7 7 6 6 6 6 5 5 5 5 5 4 4 4 4 4 4 4 4 4 4 4 4 3 3
7 6 3 7 7 10 13 13 12 10 8 8 4 11 8 2 4 9 7 7 7 8 8 8 8 8 8 8 8 8 10 11 12 12 12 12 12 12 14 14 16 15 11 11 14 14 14 12 10 10 10 12 11 11 10 9 9 8 8 7 7 7 7 7 6 6 6 6 6 7 8 7 8 7 7 6 7 6 6 6 6 5 5 4 4 4 5 5 4 5 5 5 5 4 4 4 4
7 6 8 9 9 4 7 11 14 13 7 9 7 11 11 12 7 7 6 6 6 7 7 8 8 8 9 8 9 9 9 10 11 12 13 13 13 12 13 14 15 15 14 12 12 13 14 14 12 12 12 14 12 11 10 9 9 9 8 7 7 8 7 7 6 6 6 6 6 6 8 8 8 8 8 7 6 7 6 6 6 6 6 5 5 5 5 5 5 5 5 5 5 5 5 4 3
8 9 7 10 9 9 5 12 12 15 7 11 15 8 4 9 14 10 9 8 8 8 9 9 9 9 9 8 8 8 8 9 10 12 13 13 13 12 12 13 13 15 14 13 13 13 13 15 13 14 14 15 14 13 12 10 9 8 8 8 8 8 7 7 6 6 7 6 7 7 8 8 8 8 8 8 7 7 7 6 6 6 6 6 6 5 4 5 5 3 4 4 5 5 5 5 5
9 8 9 10 13 9 9 8 8 9 9 9 14 13 16 8 5 4 3 8 9 8 8 9 8 8 8 7 8 9 9 9 11 12 14 14 11 14 11 11 13 14 14 14 14 13 14 13 14 14 14 14 13 13 13 12 10 9 8 8 8 8 8 7 7 6 7 6 7 7 7 8 8 8 8 8 7 7 7 7 6 7 6 6 6 5 6 6 5 5 5 4 4 4 4 5 5
10 11 10 8 4 8 7 5 9 11 12 13 11 15 18 17 12 8 8 8 8 9 8 8 9 9 8 8 8 10 10 11 12 11 12 13 13 12 11 11 12 13 12 15 14 14 13 13 13 14 13 14 13 13 12 12 12 11 10 10 10 10 9 9 7 7 7 7 7 7 7 7 8 9 9 9 8 7 7 7 6 6 7 7 7 6 6 6 6 6 6 5 4 4 4 4 5
13 12 11 9 8 9 10 4 9 11 10 11 14 13 15 17 16 15 13 10 11 11 10 9 9 8 8 8 8 9 10 12 11 9 10 11 11 11 11 11 11 12 12 13 15 14 14 14 13 13 14 15 13 13 12 12 11 11 10 9 10 10 10 8 9 9 9 8 8 8 9 7 8 8 9 9 9 8 8 7 7 7 8 8 8 8 7 7 7 7 7 6 6 5 4 5 4
10 11 10 11 8 7 7 7 6 6 6 12 14 16 17 16 13 14 16 13 11 13 14 12 10 10 10 10 10 10 11 11 7 8 8 9 11 11 11 10 11 12 13 14 15 16 16 14 13 15 14 15 14 13 12 12 12 11 10 11 10 11 9 9 9 10 9 8 7 9 10 8 8 9 9 9 9 9 8 8 8 8 8 8 8 9 8 8 8 7 7 6 6 6 5 5 4
7 8 9 8 9 8 5 7 7 4 7 9 10 13 17 16 14 13 13 14 18 14 14 14 14 12 11 12 13 12 11 7 6 6 8 9 10 11 11 10 12 14 14 15 16 17 16 16 16 14 13 15 15 15 14 14 13 12 11 11 11 11 10 10 10 10 10 9 8 9 10 10 10 9 9 9 10 10 9 9 9 9 10 9 9 9 9 8 8 7 6 7 6 7 6 4 3
7 6 6 7 8 7 5 3 6 5 5 9 10 11 13 15 14 14 15 16 15 14 14 14 15 16 14 13 13 12 10 10 10 11 10 11 12 13 12 12 12 15 14 16 16 15 16 15 15 14 13 14 15 16 14 14 14 14 14 12 13 10 10 10 11 12 9 11 10 10 9 11 11 11 11 9 10 11 10 10 10 10 11 8 8 9 9 10 9 9 10 8 6 6 5 3 5
7 7 8 9 6 7 6 10 9 6 6 4 5 9 12 15 15 17 16 16 16 17 16 15 14 16 16 15 12 11 12 11 11 11 12 12 13 13 12 12 13 13 13 14 14 16 14 14 15 15 15 14 13 15 13 14 14 13 14 13 12 12 10 10 12 11 11 12 11 10 9 11 12 11 12 12 11 11 11 11 11 11 10 9 8 9 8 9 10 8 8 8 6 7 6 5 5
9 9 9 7 7 6 6 4 5 3 7 5 9 11 13 15 16 15 15 18 18 18 16 16 15 13 12 9 9 10 12 11 10 11 11 11 12 14 15 14 12 12 14 14 14 14 12 17 17 17 15 15 14 14 14 13 12 13 13 12 11 12 11 11 11 11 11 12 11 11 13 11 12 12 12 12 10 12 11 11 11 10 10 9 9 10 8 9 9 8 9 8 9 8 8 6 7
9 11 10 8 5 6 5 6 3 4 7 11 8 6 9 12 17 18 12 11 17 17 18 19 17 14 10 12 12 9 7 7 9 10 10 10 11 11 12 12 13 12 13 14 14 14 14 13 14 15 13 13 14 15 15 14 13 13 14 13 13 13 14 13 15 15 13 13 13 10 14 14 13 13 13 13 11 9 11 10 8 8 9 8 8 9 8 8 9 10 9 9 9 9 8 6 6
9 8 12 10 7 5 5 6 3 5 7 4 7 9 6 2 7 9 9 11 13 11 17 19 16 14 13 12 11 11 12 11 10 10 9 8 9 10 11 12 13 13 13 10 11 13 14 12 13 14 13 12 12 13 15 13 13 13 15 15 13 14 15 13 12 11 13 12 10 12 13 13 14 14 14 13 13 10 8 10 8 9 9 9 9 9 10 10 9 8 7 8 8 7 7 7 7
10 7 11 13 11 6 6 6 6 7 4 4 7 7 8 8 14 11 12 11 13 14 16 16 15 15 16 15 14 13 13 13 10 12 12 11 11 11 13 13 12 13 11 10 11 12 14 15 13 13 12 11 11 11 14 14 13 13 14 14 13 13 14 13 13 13 13 12 13 14 13 13 14 14 12 12 11 9 10 10 10 9 9 8 8 9 11 11 8 7 8 9 8 8 8 8 8
1 2 6 9 8 6 5 4 5 4 5 6 7 7 5 9 12 8 6 10 14 17 15 14 15 16 17 17 16 15 15 14 12 9 11 11 11 12 11 10 11 10 9 10 10 10 11 12 13 13 13 13 12 13 12 15 14 13 13 12 13 12 12 11 9 9 10 10 14 12 13 12 11 12 12 10 10 10 11 11 12 11 10 9 7 6 8 8 7 8 8 8 8 8 8 8 7
4 4 6 4 4 3 4 4 4 4 4 11 8 9 7 11 7 9 8 11 15 13 11 13 14 16 15 15 16 15 13 10 9 10 8 7 7 7 8 8 8 8 7 7 7 7 8 9 12 13 14 12 11 13 14 15 15 12 13 13 14 12 10 10 10 11 12 11 14 15 12 11 11 9 11 12 10 12 11 11 11 11 11 10 8 10 10 9 9 9 9 10 9 8 5 5 7
12 10 10 8 5 3 2 2 2 3 10 11 8 11 10 8 6 11 8 8 9 7 8 9 10 11 13 13 14 12 12 8 5 5 6 6 5 5 6 8 8 6 5 7 7 8 8 9 11 13 14 11 11 13 13 15 14 13 13 14 14 13 12 11 10 11 11 13 14 14 13 11 12 11 11 11 14 14 13 11 11 11 10 9 8 9 8 9 9 9 9 8 8 8 8 9 8
12 6 8 8 4 3 4 2 2 4 8 0 9 13 13 10 4 7 11 3 5 7 8 7 7 8 8 9 10 10 7 5 5 5 6 7 6 6 6 7 7 8 7 8 7 8 9 10 11 13 13 13 12 12 14 14 14 15 13 14 13 13 12 10 12 12 11 12 12 11 11 11 12 11 10 10 10 12 11 9 10 12 10 10 10 9 8 8 8 7 7 7 7 10 10 9 10
9 9 10 8 5 4 5 5 7 10 8 2 3 5 6 19 12 6 6 5 7 8 7 7 6 5 6 2 2 2 2 3 4 5 5 6 7 8 8 8 7 8 8 9 9 8 9 11 14 15 15 15 14 13 14 15 14 15 15 14 13 11 11 12 11 12 12 11 11 12 12 12 12 12 11 10 11 13 10 11 12 11 10 9 9 10 9 10 9 7 7 8 9 10 9 9 9
12 12 11 9 9 8 8 9 5 4 3 3 5 2 9 10 9 16 21 19 10 9 9 8 8 9 8 4 4 4 3 4 4 5 5 5 5 5 6 6 7 7 8 8 8 8 8 8 11 14 15 15 14 13 14 14 15 14 13 13 12 10 11 11 11 12 12 12 10 10 11 12 12 13 12 12 11 12 11 11 11 11 11 10 10 10 10 9 9 8 8 9 10 9 8 9 9
11 9 10 8 8 4 8 7 10 5 1 4 4 3 5 3 2 4 6 9 10 10 10 9 5 4 6 6 4 5 5 7 6 6 6 6 6 7 6 6 6 6 7 7 7 9 9 9 10 11 9 10 10 11 10 12 11 12 13 11 10 9 9 10 11 11 11 10 9 10 12 11 11 11 10 9 10 10 11 11 11 11 10 9 9 9 8 9 9 8 8 9 8 7 8 8 8
10 9 8 10 10 5 5 2 2 2 2 3 5 6 3 7 6 5 4 6 6 6 8 5 7 6 6 6 6 6 7 7 6 6 6 6 5 5 5 5 5 5 7 6 8 7 8 9 9 10 11 10 10 11 11 11 11 9 11 11 11 10 8 9 10 9 10 10 10 10 10 10 9 9 9 9 10 10 11 10 11 10 10 10 9 9 9 9 10 10 10 8 8 5 7 10 7
12 12 14 11 6 1 2 1 3 2 2 8 5 5 7 8 14 15 11 6 7 8 10 10 10 10 9 7 5 5 6 6 5 4 4 4 4 5 5 5 5 5 5 6 6 6 7 7 8 9 9 9 10 10 11 11 11 12 12 12 11 11 12 13 12 12 12 11 10 9 9 10 9 9 8 8 10 10 9 9 11 11 11 10 10 10 10 9 9 9 9 9 8 7 7 8 6
11 10 11 7 3 5 2 5 2 3 7 4 6 7 6 2 6 4 14 10 9 10 11 11 12 10 9 8 7 7 7 6 5 4 3 2 3 3 3 3 4 4 5 6 6 6 5 6 7 8 8 8 8 8 9 10 10 11 10 11 11 11 12 12 12 12 10 10 10 8 8 8 8 8 7 6 9 10 9 10 10 10 10 10 10 10 10 10 9 7 7 8 8 9 8 6 5
7 9 8 10 6 7 8 2 5 6 7 4 6 10 9 9 10 4 9 13 14 15 13 11 12 11 10 8 8 8 6 4 3 3 2 2 3 4 5 6 5 4 3 3 4 4 4 3 4 4 5 5 6 6 6 7 8 6 6 8 10 11 12 12 11 11 10 9 9 9 8 7 7 7 8 7 8 8 8 8 9 9 9 9 9 9 9 9 10 8 8 7 7 8 8 7 5
3 2 10 8 4 7 8 7 2 1 6 3 3 6 6 10 8 9 8 12 12 13 13 13 11 8 8 7 6 5 4 4 2 2 1 2 3 3 5 6 6 5 4 3 3 3 3 3 4 4 3 3 4 5 6 7 7 7 6 6 8 9 10 11 10 10 12 11 10 8 8 9 9 7 7 6 6 6 7 8 8 8 8 8 9 9 8 8 8 9 9 7 7 9 9 8 6
9 9 11 8 4 3 4 3 6 3 4 7 6 6 5 5 8 9 12 11 9 9 10 8 7 4 2 2 2 2 1 1 1 2 3 3 3 3 3 2 3 3 2 1 1 2 3 3 3 4 5 5 5 5 6 6 6 7 7 9 11 11 12 10 10 9 10 10 8 8 7 7 6 7 6 6 6 8 8 8 8 8 8 8 9 8 8 8 9 6 6 7 8 8 9 7 8
11 11 12 13 11 6 8 7 4 2 3 4 4 9 3 4 3 4 4 5 7 9 8 7 4 3 2 1 1 1 1 2 2 2 3 3 3 3 3 3 3 2 2 3 3 3 4 4 4 4 5 5 6 7 7 7 7 7 9 9 11 10 9 8 9 10 11 10 9 8 7 6 7 6 7 8 8 8 7 8 8 8 8 8 8 8 9 9 9 8 7 6 7 8 8 7 7
Wind_Direction
269 240 283 266 273 274 293 228 263 167 243 93 109 208 84 89 86 142 123 136 165 73 71 178 102 154 316 2 0 21 42 22 12 317 67 124 163 122 133 125 125 128 128 130 132 132 126 125 126 121 113 112 110 109 109 111 106 105 107 106 102 102 102 96 94 93 95 92 89 93 95 89 86 82 84 88 92 90 92 95 90 89 85 84 81 84 85 83 82 81 78 75 74 72 69 68 66
287 301 263 260 263 290 214 348 275 214 211 138 81 26 93 107 203 157 124 176 51 114 113 138 146 89 6 333 334 320 64 53 35 85 86 119 161 128 128 133 137 130 125 129 149 130 125 128 124 116 113 111 109 109 111 110 105 105 106 102 101 99 97 98 100 99 95 93 92 88 85 85 89 88 87 85 78 81 79 74 82 90 94 88 78 77 82 83 79 79 78 77 75 73 70 67 66
302 304 271 229 254 245 298 235 267 32 280 104 93 74 115 149 154 127 104 79 93 113 113 126 103 161 236 231 198 333 88 71 87 90 108 137 141 146 146 135 133 128 125 137 150 134 126 127 130 120 113 112 112 112 114 115 108 97 100 105 98 103 108 104 100 96 97 98 96 98 100 101 90 91 98 93 87 85 87 88 83 76 72 91 88 82 82 81 79 78 78 78 76 73 69 66 64
275 281 290 279 285 221 266 228 261 308 323 39 115 108 132 140 117 86 75 87 101 136 148 147 186 63 300 173 25 214 99 92 79 114 120 167 146 146 146 138 128 129 124 134 136 132 129 129 142 122 116 115 116 116 118 121 115 106 100 108 103 104 103 103 102 97 102 99 104 103 98 94 101 106 97 94 92 91 88 89 88 91 91 87 91 88 81 79 80 78 77 77 75 71 68 66 64
259 257 264 279 284 267 317 316 317 258 2 16 59 123 127 136 108 106 95 94 106 153 185 164 196 122 336 323 331 334 73 97 106 116 145 123 117 146 141 139 143 128 135 138 135 137 118 124 143 127 122 121 121 119 118 125 117 112 114 112 110 107 103 102 105 109 99 105 100 94 99 102 102 101 106 103 92 85 91 91 95 98 96 93 89 87 85 83 80 79 79 77 74 72 69 66 64
251 262 233 259 290 8 255 237 198 239 47 331 36 87 138 114 118 120 117 112 102 101 348 196 328 136 184 135 19 34 8 190 116 123 141 116 134 141 141 156 138 142 135 137 137 137 129 124 143 138 131 128 127 125 128 130 120 122 119 116 120 118 109 108 108 101 107 106 93 98 97 104 104 105 103 102 100 96 88 86 82 92 95 94 92 91 89 87 85 84 83 80 76 74 71 68 66
305 281 219 233 204 234 266 268 19 45 73 340 41 90 140 127 122 136 133 126 146 128 179 204 179 206 212 114 125 71 74 89 161 137 141 133 136 140 148 153 142 135 138 136 138 129 123 118 126 137 134 132 131 127 135 133 125 121 121 119 117 116 116 113 106 109 112 107 102 101 105 102 100 99 104 105 101 96 95 91 89 85 83 88 90 91 89 88 87 87 85 82 79 76 73 70 67
240 282 34 276 216 224 241 326 309 22 89 20 55 63 108 132 143 159 156 191 158 206 176 152 226 283 66 245 121 102 95 33 61 122 107 141 140 137 162 149 143 136 136 134 132 117 103 84 102 109 130 138 133 131 127 134 134 122 128 131 126 116 120 117 111 114 118 116 113 109 105 109 112 113 111 114 113 111 105 101 98 98 98 91 88 88 87 89 91 89 87 85 81 79 75 72 70
227 263 124 282 250 179 262 222 92 71 107 132 135 70 42 135 171 166 165 117 131 189 165 181 192 244 95 156 74 124 84 101 123 108 135 138 142 151 160 151 145 139 135 139 125 129 133 81 109 121 118 133 139 133 126 114 108 120 120 137 128 121 118 109 118 115 117 121 119 117 120 124 115 113 115 116 115 110 111 108 101 95 93 92 92 90 90 90 92 91 89 85 83 81 77 74 71
202 252 216 254 320 233 237 146 225 121 97 89 93 137 169 174 183 199 164 160 156 180 126 136 193 261 39 117 123 147 113 141 134 133 144 142 146 160 158 148 139 141 140 136 134 140 123 100 96 106 124 125 103 126 136 119 113 96 89 107 122 124 113 110 111 117 113 118 104 107 109 106 111 110 109 110 113 118 112 108 104 101 96 91 90 88 88 90 92 93 90 87 83 81 79 76 71
218 192 316 265 218 264 232 149 157 150 147 142 145 128 166 176 192 196 191 154 130 165 132 157 199 231 243 99 52 83 109 141 150 145 151 147 153 158 155 138 137 146 137 142 140 136 138 139 102 105 114 133 124 89 126 133 123 107 108 122 121 123 122 120 121 123 122 114 115 120 122 119 118 117 119 120 118 113 116 106 100 99 97 96 92 90 89 89 89 91 88 86 84 82 79 77 71
240 222 168 245 250 246 199 52 154 127 137 171 126 144 163 181 188 200 187 181 172 171 171 188 59 172 209 219 118 132 131 150 156 146 151 142 160 162 147 141 145 141 138 142 148 137 144 144 153 112 102 119 111 96 103 134 127 119 117 125 125 126 127 128 130 129 121 121 125 118 115 105 87 85 82 82 86 107 116 112 107 104 100 99 95 95 96 92 91 86 84 84 84 81 80 77 72
264 131 223 242 258 242 43 278 136 61 187 158 113 107 153 177 192 202 182 214 161 192 166 184 63 253 184 126 105 129 141 155 150 146 148 154 152 159 159 136 151 137 143 149 156 143 144 156 148 159 127 109 109 106 101 125 124 117 102 79 79 112 130 126 130 134 124 131 126 117 95 81 82 78 69 56 55 95 92 61 107 110 104 96 93 93 92 92 87 84 82 80 79 79 76 74 72
277 186 246 238 77 278 281 280 48 208 181 96 65 112 178 182 198 233 201 204 180 185 56 123 210 260 131 131 147 151 143 155 143 147 151 153 153 146 163 143 150 140 147 162 158 151 150 158 152 152 145 165 151 124 105 119 121 112 98 94 95 94 93 82 88 100 114 96 83 78 86 82 80 76 67 62 61 59 54 65 78 107 106 100 98 96 93 90 87 83 80 77 77 76 73 72 68
288 324 244 269 271 243 213 250 291 228 100 111 87 158 167 151 352 189 236 221 103 69 106 54 350 256 87 250 145 157 145 152 149 152 151 154 147 142 152 145 155 148 159 173 158 159 155 156 159 154 165 170 159 166 157 122 123 114 106 107 107 101 94 99 98 109 112 109 102 96 93 86 78 77 67 68 62 58 80 76 58 85 99 107 104 99 93 91 89 83 81 77 77 76 75 72 68
309 290 243 237 239 231 169 231 205 266 103 84 114 125 185 153 198 205 151 355 78 77 167 156 213 341 0 58 60 122 139 146 149 152 152 152 148 141 146 171 173 162 170 179 160 169 160 163 160 160 166 172 175 170 164 149 125 115 111 110 113 114 111 108 107 108 114 117 114 115 113 119 113 98 107 91 76 66 53 55 59 81 99 111 114 111 104 99 93 86 82 82 81 81 80 77 69
255 271 210 226 243 204 153 219 174 221 89 91 130 175 186 179 168 245 17 268 241 157 192 105 148 210 35 73 81 119 135 139 149 154 157 160 160 160 162 177 182 163 171 184 169 173 169 166 168 169 165 170 178 167 163 155 128 120 112 112 117 122 122 120 115 115 116 123 133 137 153 155 142 134 156 129 117 78 69 68 64 64 105 116 112 110 107 103 95 89 84 83 84 94 106 106 94
211 214 225 218 238 215 181 216 176 56 78 92 140 188 222 173 161 184 186 218 234 138 203 142 90 160 83 99 123 124 135 150 158 162 166 167 176 171 174 174 183 178 174 181 185 178 175 173 175 176 171 170 175 164 168 151 148 166 162 149 144 134 132 135 145 152 152 149 149 166 177 156 158 161 122 143 134 133 93 82 79 80 67 72 97 114 109 96 96 101 99 96 113 149 197 183 147
219 218 225 239 210 54 42 52 82 216 89 70 78 191 239 299 169 160 213 204 201 209 212 186 191 176 124 117 139 156 152 162 166 174 171 175 184 181 178 177 183 188 178 182 183 187 183 177 179 180 176 180 171 178 168 157 165 187 179 172 164 172 157 171 174 172 182 171 177 192 180 164 161 144 125 86 101 72 92 86 91 89 88 82 77 88 99 95 101 98 110 146 201 219 229 252 88
224 248 223 235 226 105 92 30 101 73 111 117 100 120 253 97 244 126 226 229 196 221 209 195 213 189 175 144 158 159 161 168 176 183 182 183 188 188 183 182 188 193 182 183 178 188 185 185 181 184 176 180 180 180 188 176 179 190 183 175 169 182 176 191 188 181 190 181 187 195 187 150 171 125 96 111 123 145 112 101 101 106 108 104 123 120 119 115 122 138 191 229 231 225 226 274 142
143 231 231 244 179 191 134 93 85 89 346 116 99 92 235 176 225 192 211 240 229 228 231 214 208 206 177 160 160 168 167 174 183 191 191 189 191 194 192 190 193 190 187 178 182 185 188 189 180 186 176 181 184 182 190 185 187 190 187 181 177 180 181 186 188 189 191 184 195 198 185 149 199 134 159 163 183 159 157 167 166 180 176 171 200 196 182 155 207 176 187 215 230 185 238 188 312
97 226 306 357 89 226 101 104 86 84 21 244 128 226 95 64 242 234 236 232 241 8 203 215 233 228 163 164 165 172 174 179 185 192 196 195 192 193 193 190 197 196 180 187 188 182 186 191 182 185 179 181 186 188 188 184 185 193 190 191 184 192 180 187 189 188 190 190 193 204 178 175 203 157 174 181 192 159 178 173 187 187 174 160 197 207 187 168 198 186 190 220 180 234 27 40 347
226 191 239 274 313 273 122 118 102 183 186 211 226 115 354 231 252 221 238 243 38 57 40 39 11 55 150 158 158 173 180 185 188 193 196 196 196 198 196 194 191 194 190 193 182 184 180 189 184 183 182 182 189 196 188 183 192 193 193 187 189 197 184 191 192 190 192 189 193 202 187 183 195 181 179 184 187 179 194 193 191 175 182 181 191 202 169 179 203 185 192 195 197 6 221 93 169
231 237 180 207 203 200 137 104 128 180 205 232 32 24 245 226 253 118 242 244 260 86 68 68 68 129 146 157 169 176 183 188 193 196 196 198 196 198 199 199 195 195 201 193 186 185 179 186 182 183 182 183 186 198 194 187 191 199 193 183 196 189 193 194 196 193 190 189 195 195 199 189 188 186 180 187 193 202 198 195 192 182 189 190 185 202 174 190 194 186 186 137 209 195 220 267 301
215 238 176 160 180 133 131 119 138 151 189 128 241 243 236 234 291 8 250 250 248 157 124 113 138 165 167 171 176 181 185 191 195 194 194 200 199 199 203 209 208 205 204 197 195 195 183 184 182 184 181 185 185 193 197 192 191 197 194 191 192 187 200 197 198 195 196 193 193 200 200 199 189 189 183 185 195 199 197 195 201 199 195 189 181 190 187 185 192 179 186 213 230 289 292 249 313
217 227 185 163 185 166 137 154 166 158 146 171 220 240 242 128 3 263 257 254 237 148 185 173 166 178 187 186 182 183 188 192 192 191 194 196 198 199 202 209 209 210 204 199 196 199 188 184 187 187 184 184 184 188 198 197 191 193 197 196 189 188 202 203 198 195 196 195 192 198 197 209 197 193 186 191 194 192 193 192 206 205 193 201 183 196 187 206 203 193 232 252 240 254 268 302 301
187 205 188 189 186 179 165 210 187 174 233 159 248 254 216 120 203 266 194 97 127 179 213 201 202 199 194 193 189 192 191 192 191 189 190 195 197 201 202 207 212 210 203 201 199 198 194 186 190 188 186 181 183 189 194 199 191 194 195 195 193 189 198 201 201 202 199 198 198 187 197 208 211 204 191 193 192 193 195 193 204 199 201 196 197 210 194 210 232 263 247 256 272 296 303 303 276
201 169 161 201 176 205 187 217 211 181 225 191 264 270 276 171 201 240 128 159 165 195 197 200 209 217 205 198 194 195 199 196 188 188 193 193 196 197 200 203 207 208 205 203 197 196 197 193 190 191 188 181 187 191 190 199 193 195 192 196 195 195 192 200 201 203 200 203 199 186 197 197 212 207 208 195 201 194 197 198 199 199 202 187 193 218 226 203 247 244 201 265 303 293 285 289 291
125 186 203 211 218 228 213 218 216 204 217 158 315 288 256 203 229 216 239 155 184 203 201 201 211 219 216 206 196 195 203 194 190 196 202 199 195 195 202 203 203 204 208 205 199 193 201 198 198 194 191 183 192 193 190 195 194 192 192 195 196 191 195 201 203 201 200 199 196 194 195 199 200 211 202 206 203 205 204 198 201 199 211 220 220 202 239 234 225 237 230 228 257 271 274 282 270
162 189 228 215 225 239 224 219 225 199 193 137 164 256 241 228 216 211 201 164 173 204 210 199 206 212 216 209 204 204 199 196 198 205 204 201 198 199 203 201 201 202 201 203 200 197 196 199 200 202 199 194 192 197 194 192 196 193 192 195 197 188 196 200 206 204 198 198 194 196 197 198 199 204 205 198 203 210 206 201 206 205 213 220 221 191 211 224 242 239 253 258 252 243 264 258 273
196 176 236 240 224 242 211 207 201 207 160 163 182 253 258 337 150 224 170 182 180 215 219 213 204 202 208 209 214 214 206 204 207 207 206 204 201 202 205 202 199 200 199 201 202 200 195 198 194 204 201 207 193 200 200 197 195 196 192 195 195 192 198 200 203 207 201 201 194 194 198 198 200 203 201 197 200 208 205 204 203 213 208 199 201 199 224 225 233 249 250 253 260 269 261 267 274
195 156 217 222 237 215 143 188 196 209 153 188 176 252 255 258 259 156 163 190 201 226 232 224 211 204 203 205 216 221 219 210 215 214 209 208 205 203 202 203 199 198 200 199 201 203 201 197 195 204 193 207 204 203 203 203 200 198 198 195 198 192 201 202 203 205 205 203 200 197 193 199 200 204 199 202 198 204 206 207 202 203 208 196 207 211 224 250 251 245 252 256 271 263 264 265 260
194 215 216 211 213 225 183 189 207 216 196 189 201 243 233 233 233 218 170 191 205 228 240 241 231 214 206 205 209 219 222 215 213 216 212 207 207 205 202 203 201 199 199 197 197 200 205 198 194 205 203 204 208 204 207 211 212 208 204 199 204 195 203 206 207 206 210 205 202 203 192 195 200 200 202 200 208 203 211 211 210 202 196 206 207 218 229 238 249 249 253 243 249 269 273 268 265
194 206 234 228 218 211 240 111 212 193 198 196 207 233 245 238 133 214 181 216 206 221 227 232 231 225 216 210 210 213 219 219 217 215 215 210 208 207 204 201 202 200 201 200 197 198 202 202 201 206 210 208 208 208 207 210 214 217 217 215 207 209 207 213 213 211 212 209 207 205 196 193 199 198 200 199 208 212 210 212 212 206 197 205 222 222 228 234 241 240 246 241 239 256 265 269 267
189 191 211 227 227 231 237 208 172 183 197 231 213 227 245 247 240 202 190 202 218 223 218 226 226 221 221 216 215 215 218 220 225 219 216 212 210 206 207 202 201 200 201 200 199 198 199 203 204 199 206 208 209 210 206 208 213 217 219 220 218 219 220 218 218 220 218 217 213 208 201 198 199 199 198 200 205 208 211 211 211 207 203 209 225 227 227 234 236 232 245 258 239 241 263 276 288
207 194 201 212 208 210 229 205 131 184 196 216 229 231 239 245 243 242 229 187 224 238 239 236 234 227 224 221 222 224 222 227 228 226 219 211 206 205 204 203 199 200 200 200 200 200 202 203 204 204 198 210 208 209 207 208 209 212 212 215 221 216 217 218 220 224 224 223 222 224 219 212 204 199 198 200 204 208 208 207 206 202 199 209 221 224 223 225 226 230 238 247 252 239 230 258 251
217 206 203 217 225 235 214 210 133 185 226 230 232 240 250 252 244 240 240 234 221 237 241 237 229 226 229 230 227 223 223 229 220 216 214 206 201 202 204 203 201 201 202 200 200 202 204 204 202 208 203 206 207 205 207 206 206 206 211 211 214 216 209 210 217 220 224 220 202 215 223 219 216 200 201 200 205 206 209 207 204 204 200 201 218 224 222 224 222 224 229 230 243 247 240 227 228
211 201 205 213 223 241 241 195 140 160 221 251 237 247 254 255 253 250 243 238 238 222 232 238 237 233 229 229 228 221 223 215 179 192 201 197 201 200 200 203 202 200 203 202 202 203 204 204 205 207 204 205 209 210 209 209 209 207 205 207 211 215 211 205 212 213 215 215 202 205 214 216 221 216 199 207 214 210 205 209 209 211 212 219 221 224 224 220 222 222 223 233 222 236 246 237 189
214 222 204 233 228 226 76 132 144 159 210 254 265 265 263 263 259 250 243 242 242 234 229 231 233 236 236 228 224 222 214 211 199 215 204 200 198 199 199 202 205 209 204 205 207 205 205 205 207 205 206 205 205 209 210 211 209 209 209 210 207 211 216 215 216 219 200 213 210 208 202 210 215 219 213 205 216 215 208 206 215 217 218 214 211 219 220 222 222 224 224 227 221 214 233 199 169
216 211 226 220 220 211 217 196 174 175 216 284 289 281 278 275 266 258 249 240 239 239 235 231 227 235 234 229 220 216 216 215 213 212 208 199 193 196 200 203 205 204 208 209 207 207 206 208 206 204 206 207 206 203 207 211 208 207 210 212 207 209 210 213 216 213 209 205 213 207 204 209 211 215 215 211 214 217 215 214 218 220 217 211 210 213 210 216 219 218 215 214 227 223 200 213 197
216 229 227 231 212 219 258 88 173 164 241 274 279 277 272 267 264 258 241 234 237 234 234 228 225 227 233 243 241 227 223 215 219 223 220 201 189 194 198 201 197 201 205 206 204 203 205 207 206 203 204 206 206 202 196 206 208 211 211 213 217 218 223 222 216 215 207 208 211 209 208 205 211 214 214 215 214 218 217 220 221 220 219 211 212 218 215 215 210 213 209 207 208 220 210 213 175
214 220 228 228 229 225 149 131 181 226 246 202 209 271 259 244 240 247 248 229 227 227 230 227 220 216 209 223 226 225 233 232 225 228 227 209 196 196 196 196 198 204 205 209 205 205 207 209 207 207 209 209 208 207 199 196 207 208 206 206 208 213 218 215 216 213 205 204 208 206 213 211 213 219 218 217 212 214 219 219 217 219 220 211 209 215 214 212 212 210 204 208 213 213 226 224 162
216 220 204 229 248 253 201 195 175 260 261 94 197 238 271 331 276 249 243 239 240 224 225 232 225 223 218 218 218 216 216 220 224 231 230 215 208 199 194 195 201 204 211 202 202 209 210 211 208 208 210 211 209 207 200 193 205 209 208 209 208 210 216 219 216 215 218 215 209 209 212 213 215 219 221 219 214 200 211 214 209 215 226 219 210 211 213 215 215 208 202 202 208 210 211 231 190
219 64 175 207 220 219 209 217 228 257 358 172 205 238 271 275 268 267 260 234 235 235 230 226 227 228 225 222 217 215 212 208 203 211 219 216 209 200 200 200 198 206 201 191 199 203 207 208 207 207 209 212 211 207 204 201 203 205 206 208 211 214 215 218 212 215 220 221 223 222 216 214 212 215 217 216 207 195 202 216 213 213 228 232 208 205 214 212 211 201 201 200 201 206 205 210 215
136 99 154 189 198 201 214 221 237 266 348 269 197 196 262 239 258 260 222 244 242 241 234 227 222 222 224 224 222 214 212 207 202 201 211 208 204 206 208 202 200 200 193 197 197 198 202 206 208 207 208 207 210 206 206 205 205 207 206 209 213 217 219 220 216 212 215 212 222 222 220 214 206 207 212 206 206 208 205 214 220 218 217 223 210 200 208 203 198 206 203 198 198 207 213 211 214
104 132 118 127 155 165 192 219 245 256 246 249 225 182 245 268 238 252 197 236 247 246 242 234 225 222 221 226 228 227 220 212 208 218 219 215 200 198 202 203 203 199 185 186 193 194 196 199 206 209 212 210 206 210 206 212 208 207 213 213 216 216 214 217 214 213 213 212 219 221 217 209 199 196 205 209 208 212 207 203 213 215 212 215 205 206 207 199 197 204 209 204 197 199 192 192 204
126 123 120 118 130 150 173 253 275 264 247 247 224 207 221 286 209 227 206 226 229 250 248 238 235 232 232 230 230 225 221 193 156 198 218 224 218 206 179 194 202 184 149 182 192 194 192 197 203 209 214 212 209 211 210 212 212 209 216 219 219 219 214 211 213 219 214 213 219 220 218 210 206 203 206 213 216 215 213 200 203 209 213 207 203 205 198 199 202 201 208 195 184 187 198 198 202
150 140 141 127 110 143 179 188 211 240 258 206 201 217 200 239 213 214 241 150 177 235 246 233 215 222 232 235 231 225 199 162 174 197 214 210 193 192 191 206 202 199 188 195 194 194 199 199 200 208 212 213 212 211 212 213 213 216 216 218 221 222 219 214 215 219 215 216 212 213 214 212 213 210 203 209 213 211 205 200 200 209 207 202 199 199 200 196 197 195 198 189 183 194 202 192 196
173 159 160 160 163 165 209 198 210 220 250 109 56 110 203 239 242 268 269 247 243 228 235 218 215 241 257 270 140 141 155 162 177 200 202 191 192 186 191 201 189 192 199 200 200 199 205 203 198 199 204 205 211 210 212 213 212 214 215 216 221 223 227 227 226 230 229 220 217 217 216 216 215 211 204 202 209 205 201 201 198 202 200 199 195 197 197 191 191 194 196 191 194 193 191 191 193
179 176 172 184 188 191 224 209 231 253 142 142 116 153 259 287 280 231 246 254 234 227 223 240 251 263 262 222 170 181 197 224 231 223 211 201 194 190 197 193 191 190 195 194 197 199 206 218 214 206 206 198 198 204 210 214 216 216 217 218 219 219 226 231 232 233 232 233 224 216 220 224 217 217 208 205 208 202 203 202 200 202 202 195 189 192 190 188 182 185 187 193 191 187 185 193 200
184 187 188 197 197 186 203 195 203 214 165 129 144 136 240 199 170 9 291 280 267 230 230 243 261 268 269 274 228 230 240 246 226 219 219 218 209 202 195 194 193 192 189 190 195 198 197 209 215 221 219 209 199 200 203 211 217 220 227 223 221 221 225 230 235 235 233 230 224 221 224 224 221 219 217 208 208 201 204 201 199 201 202 199 190 189 187 186 183 182 186 194 188 185 187 188 203
193 195 205 222 221 253 256 3 287 158 144 177 191 224 259 232 21 270 223 250 239 246 246 242 252 248 246 248 237 230 234 234 214 208 218 221 208 200 201 205 201 196 196 191 197 193 199 206 208 212 210 205 203 201 205 206 209 211 215 218 218 223 225 233 235 230 236 234 227 223 222 225 222 220 219 213 209 205 203 199 196 201 200 201 194 192 190 189 187 189 190 186 183 175 181 190 194
178 185 203 203 17 244 131 144 106 31 321 255 166 255 261 263 269 245 250 221 233 221 231 236 243 247 248 245 236 229 230 232 214 211 220 197 188 190 200 211 208 194 191 195 195 195 202 204 209 209 207 205 204 206 209 210 211 211 214 212 212 214 219 223 229 232 229 230 230 224 218 221 219 214 219 206 207 207 203 197 196 199 198 196 194 192 188 188 188 192 187 177 175 170 173 184 168
142 202 196 100 57 358 239 232 131 220 239 248 154 230 259 276 287 174 193 208 216 215 220 223 234 239 238 236 228 225 230 227 208 208 220 204 192 198 189 197 204 196 186 182 184 184 195 204 206 204 204 204 204 207 211 214 214 216 215 217 219 222 224 224 225 231 234 231 227 222 210 214 216 209 218 202 201 198 202 196 198 197 195 193 191 188 186 186 180 186 186 176 171 165 160 162 170
202 187 133 156 196 216 204 247 229 198 221 253 222 222 248 234 236 138 192 210 225 232 229 221 223 229 232 230 232 233 226 194 189 216 216 208 197 203 206 201 182 173 167 163 147 148 170 184 198 206 205 206 204 205 211 215 217 215 217 220 222 225 228 229 227 228 232 234 232 219 208 206 219 212 214 198 197 196 199 197 197 197 194 194 192 189 186 187 178 179 177 171 157 162 155 159 156
305 305 186 216 311 218 187 205 300 216 242 224 249 155 254 199 224 215 209 196 219 225 224 231 240 243 226 228 222 212 212 213 165 152 191 201 201 201 201 185 169 162 166 168 160 151 161 170 181 194 195 183 182 197 202 212 214 220 220 227 231 233 230 230 231 230 230 232 225 219 212 208 213 204 208 189 196 198 196 194 197 195 193 191 191 187 179 176 180 186 175 162 160 160 156 154 147
178 190 192 184 212 356 321 216 215 214 240 229 263 248 233 205 184 199 225 229 204 198 199 210 226 219 195 232 237 225 210 94 116 187 207 202 205 190 177 149 97 89 74 72 161 172 157 162 178 184 193 193 200 205 211 215 213 215 220 226 230 230 231 231 232 230 231 231 224 216 212 209 194 194 185 199 199 202 199 195 191 191 190 191 189 179 176 177 185 175 160 148 153 160 156 145 148
190 188 196 190 176 183 186 219 190 241 211 238 223 254 259 109 141 166 220 224 194 184 191 205 173 144 169 116 26 45 312 265 230 196 190 195 198 174 142 112 107 124 159 193 194 185 186 188 187 179 189 195 192 195 199 204 207 210 211 216 221 227 232 229 222 223 224 223 222 216 205 201 206 196 186 200 201 197 192 190 191 190 191 188 188 182 172 167 172 161 148 149 157 154 140 141 150